Regional Weather Roundup
Issued by NWS

Home | Current Version | Previous Version | Graphics & Text | Print | Product List | Glossary On
Versions: 1 2 3 4 5 6 7 8 9 10 11 12 13 14 15 16 17 18 19 20 21 22 23 24 25 26 27 28 29 30 31 32 33 34 35 36 37 38 39 40 41 42 43 44 45 46 47 48 49 50
000
ASUS43 KFSD 200302
RWRSD

WEATHER ROUNDUP FOR SOUTH DAKOTA
NATIONAL WEATHER SERVICE SIOUX FALLS SD
1000 PM CDT TUE SEP 19 2017

NOTE: "FAIR" INDICATES FEW OR NO CLOUDS BELOW 12,000 FEET WITH NO
SIGNIFICANT WEATHER AND/OR OBSTRUCTIONS TO VISIBILITY.


SDZ001>005-009-010-012>017-200400-
NORTHWEST AND NORTH CENTRAL SOUTH DAKOTA

CITY           SKY/WX    TMP DP  RH WIND       PRES   REMARKS
BUFFALO          N/A     46  43  89 SW13      29.65R
FAITH            N/A     49  48  97 W12       29.68
MOBRIDGE       CLOUDY    58  50  75 W17G23    29.59R
$$

SDZ012>016-024>037-041>051-057-063-072>074-200400-
SOUTHWEST AND SOUTH CENTRAL SOUTH DAKOTA

CITY           SKY/WX    TMP DP  RH WIND       PRES   REMARKS
RAPID CTY ARPT NOT AVBL
PIERRE         PTCLDY    63  50  62 NW25G32   29.57F
CUSTER         CLOUDY    43  34  70 NW7       29.78R
ELLSWORTH AFB  CLOUDY    49  46  89 N12       29.72
PHILIP         LGT RAIN  53  52  96 NW10      29.67R
SPEARFISH      FAIR      46  39  76 W8        29.76S
WINNER         MOCLDY    67  47  48 NW20G31   29.62R
$$

SDZ004>011-016>023-039-040-200400-
NORTHEAST SOUTH DAKOTA

CITY           SKY/WX    TMP DP  RH WIND       PRES   REMARKS
ABERDEEN       CLOUDY    65  55  70 NW23G30   29.51R
WATERTOWN      TSTM      72  69  90 S18G29    29.41F
BROOKINGS      PTCLDY    74  67  78 S23G33    29.46F
SISSETON         N/A     74  69  85 SE14      29.40F
$$

SDZ017-020-022-023-036>040-048>070-200400-
SOUTHEAST SOUTH DAKOTA

CITY           SKY/WX    TMP DP  RH WIND       PRES   REMARKS
SIOUX FALLS    LGT RAIN  77  68  73 S21G30    29.45F
HURON          CLOUDY    66  58  75 NW23G39   29.50F
CHAMBERLAIN    CLOUDY    69  50  51 NW18G35   29.57R
MITCHELL       CLOUDY    78  68  71 S15G23    29.41F
YANKTON        CLEAR     79  69  71 SE23G33   29.43F
$$

ABBREVIATIONS USED IN REMARKS
   TC - TEMPERATURE IN CELSIUS
  WCI - WIND CHILL INDEX
   HX - HEAT INDEX
  VSB - VISIBILITY




USA.gov is the U.S. government's official web portal to all federal, state and local government web resources and services.